Simultaneous Nadir Overpasses (SNOs) Predictions

Prediction of SNOs between LANDSAT-8 and METOP-A Satellite Orbit:

Table of predicted SNOs for the next 14.0 days since TLE Epoch: 5/12/2018
Index Date (LANDSAT-8) Time (LANDSAT-8) Lat,Lon (LANDSAT-8) SZA (LANDSAT-8 ) Date (METOP-A) Time (METOP-A) Lat,Lon (METOP-A) SZA (METOP-A ) Distance(km) Time Diff (sec)
1 05/13/2018 00:42:26 -81.32, 31.81 114.56 05/13/2018 00:41:16 -81.32, 31.75 114.60 1.09 70
2 05/13/2018 01:31:52 81.33,-160.42 65.46 05/13/2018 01:31:55 81.33,-160.35 65.47 1.24 3
3 05/15/2018 20:16:39 -81.33, 98.35 115.22 05/15/2018 20:15:33 -81.33, 98.46 115.23 1.71 66
4 05/15/2018 21:06:05 81.33, -93.91 64.80 05/15/2018 21:06:13 81.33, -94.04 64.78 2.27 8
5 05/18/2018 15:50:51 -81.33, 164.86 115.84 05/18/2018 15:49:50 -81.33, 164.75 115.88 1.92 61
6 05/18/2018 16:40:17 81.34, -27.43 64.17 05/18/2018 16:40:29 81.34, -27.36 64.18 1.20 12
7 05/21/2018 11:25:04 -81.33,-128.67 116.43 05/21/2018 11:24:07 -81.33,-128.58 116.44 1.63 57
8 05/21/2018 12:14:30 81.34, 39.01 63.58 05/21/2018 12:14:47 81.33, 38.91 63.57 1.63 17
9 05/24/2018 06:59:17 -81.33, -62.24 116.97 05/24/2018 06:58:25 -81.33, -62.32 117.01 1.43 52




NCC Satellite Simultaneous Nadir Overpasses (SNOs) Prediction Service
